星链-31970 (STARLINK-31970 )

导读 | 星芒AI

STARLINK-31970 是 SpaceX Starlink 项目中的一颗低轨通信卫星,属于第 11 批(v1.5)部署的星链卫星群。该卫星于 2023 年 10 月 由猎鹰 9 号火箭送入近地轨道,旨在为全球提供高速互联网服务。它运行在约 540 公里的轨道高度,配备先进相控阵天线和激光通信系统,支持星间链路,提升网络稳定性和覆盖能力。STARLINK-31970 的部署进一步增强了 Starlink 网络的冗余性和服务能力,尤其在偏远和网络基础设施薄弱地区发挥重要作用。

基本信息
目录编号:
59928
目录名称:
STARLINK-31970
国际标识:
2024-106G
轨道中心:
EARTH
卫星名称:
星链-31970
卫星全名:
星链-31970 (STARLINK-31970 )
卫星状态:
在轨 (已飞行567 天)
发射日期:
2024-06-01 UTC
国别 :
美国 (US)
星等 :
--
轨道信息
数据来源 国际轨道数据
星历时间: 2025-12-19T22:24:46+0800
13小时前
查看轨道信息
半长轴: 6861.206km
偏心率: 0.000117
轨道倾角: 43.004°
近地点辐角 259.795°
升交点赤经 64.873°
平近点角 100.277°
近地点: 482.266km
远地点: 483.872km
周期: 94.267分钟
每日圈数: 15.275734
详细信息
固有亮度:
5
最大亮度:
1.5
卫星平台:
Starlink v2.0 mini
覆盖范围:
全球
运营商:
太空探索技术公司
运营商所在国:
美国
制造商(研发单位):
太空探索技术公司
制造商所在国:
美国
使用方式:
暂无
卫星简介
星链(Starlink)计划是由太空探索技术公司(SpaceX)提出的一个巨型低轨卫星互联网星座项目,计划在2019年至2024年间在太空搭建由约1.2万颗卫星组成的“星链”网络,其中1584颗将部署在地球上空550千米处的近地轨道,并从2020年开始工作。该卫星仍在工作。
2D轨道图
3D轨道图
轨道高度分析图
轨道倾角分析图
轨道综合分析图
查看轨道综合分析图